• Em Portugal
  • Lista de países
  • Para 7 dias
  • Temperatura da água
  • Mapas de satélite
  • Mapa do tempo
  • Widgets de tempo
  • user-avatar
    Iniciar Sessão

    Previsão horária em Cisow

    Hoje, 22 Abril, Domingo

    Tempo Temperatura Precipitação Vento Pressão Humidade
    00:00 +11°C° 0 mm 1 m/s 728 mmHg 80%
    01:00 +11°C° 0 mm 1 m/s 728 mmHg 77%
    02:00 +10°C° 0 mm 1 m/s 727 mmHg 77%
    03:00 +10°C° 0 mm 1 m/s 727 mmHg 76%
    04:00 +9°C° 0 mm 1 m/s 727 mmHg 76%
    05:00 +10°C° 0 mm 1 m/s 727 mmHg 73%
    06:00 +12°C° 0 mm 1 m/s 728 mmHg 69%
    07:00 +13°C° 0 mm 1 m/s 728 mmHg 66%
    08:00 +14°C° 0 mm 1 m/s 728 mmHg 61%
    09:00 +16°C° 0 mm 1 m/s 728 mmHg 56%
    10:00 +19°C° 0 mm 1 m/s 728 mmHg 50%
    11:00 +20°C° 0 mm 1 m/s 727 mmHg 47%
    12:00 +21°C° 0 mm 1 m/s 727 mmHg 45%
    13:00 +22°C° 0 mm 1 m/s 727 mmHg 42%
    14:00 +22°C° 0 mm 1 m/s 727 mmHg 42%
    15:00 +22°C° 0 mm 1 m/s 726 mmHg 43%
    16:00 +22°C° 0 mm 1 m/s 726 mmHg 43%
    17:00 +20°C° 0 mm 1 m/s 726 mmHg 50%
    18:00 +18°C° 0 mm 1 m/s 725 mmHg 57%
    19:00 +15°C° 0 mm 1 m/s 725 mmHg 65%
    20:00 +14°C° 0 mm 2 m/s 725 mmHg 66%
    21:00 +14°C° 0 mm 2 m/s 725 mmHg 67%
    22:00 +13°C° 0 mm 2 m/s 725 mmHg 69%
    23:00 +13°C° 0,1 mm 2 m/s 725 mmHg 70%

    Amanhã, 23 Abril, Segunda-feira

    Tempo Temperatura Precipitação Vento Pressão Humidade
    00:00 +13°C° 0,1 mm 2 m/s 725 mmHg 72%
    01:00 +13°C° 0,1 mm 2 m/s 724 mmHg 73%
    02:00 +13°C° 0,3 mm 2 m/s 724 mmHg 76%
    03:00 +13°C° 0,3 mm 2 m/s 724 mmHg 79%
    04:00 +13°C° 0,3 mm 2 m/s 724 mmHg 83%
    05:00 +14°C° 0,1 mm 2 m/s 724 mmHg 81%
    06:00 +14°C° 0,1 mm 3 m/s 724 mmHg 80%
    07:00 +16°C° 0,1 mm 3 m/s 724 mmHg 78%
    08:00 +18°C° 0 mm 4 m/s 724 mmHg 72%
    09:00 +20°C° 0 mm 5 m/s 724 mmHg 66%
    10:00 +21°C° 0 mm 5 m/s 724 mmHg 59%
    11:00 +22°C° 0,1 mm 6 m/s 724 mmHg 57%
    12:00 +22°C° 0,1 mm 6 m/s 724 mmHg 55%
    13:00 +23°C° 0,1 mm 6 m/s 724 mmHg 52%
    14:00 +22°C° 0,2 mm 6 m/s 724 mmHg 57%
    15:00 +21°C° 0,2 mm 5 m/s 724 mmHg 61%
    16:00 +20°C° 0,2 mm 5 m/s 724 mmHg 65%
    17:00 +19°C° 0,2 mm 4 m/s 724 mmHg 71%
    18:00 +17°C° 0,2 mm 4 m/s 724 mmHg 76%
    19:00 +16°C° 0,2 mm 3 m/s 724 mmHg 81%
    20:00 +14°C° 0 mm 3 m/s 725 mmHg 83%
    21:00 +12°C° 0 mm 3 m/s 725 mmHg 84%
    22:00 +11°C° 0 mm 3 m/s 725 mmHg 86%
    23:00 +11°C° 0 mm 3 m/s 726 mmHg 86%

    Depois de amanhã, 24 Abril, Terça-feira

    Tempo Temperatura Precipitação Vento Pressão Humidade
    00:00 +10°C° 0 mm 2 m/s 726 mmHg 86%
    01:00 +9°C° 0 mm 2 m/s 726 mmHg 87%
    02:00 +9°C° 0 mm 2 m/s 726 mmHg 87%
    03:00 +8°C° 0 mm 2 m/s 726 mmHg 87%
    04:00 +8°C° 0 mm 2 m/s 727 mmHg 87%
    05:00 +9°C° 0 mm 3 m/s 727 mmHg 83%
    06:00 +10°C° 0 mm 3 m/s 727 mmHg 79%
    07:00 +11°C° 0 mm 3 m/s 727 mmHg 75%
    08:00 +12°C° 0 mm 3 m/s 727 mmHg 69%
    09:00 +13°C° 0 mm 4 m/s 728 mmHg 63%
    10:00 +15°C° 0 mm 4 m/s 728 mmHg 57%
    11:00 +17°C° 0 mm 4 m/s 728 mmHg 54%
    12:00 +17°C° 0 mm 4 m/s 727 mmHg 52%
    13:00 +18°C° 0 mm 4 m/s 727 mmHg 49%
    14:00 +19°C° 0 mm 4 m/s 727 mmHg 49%
    15:00 +19°C° 0 mm 4 m/s 726 mmHg 48%
    16:00 +19°C° 0 mm 4 m/s 726 mmHg 48%
    17:00 +18°C° 0 mm 3 m/s 726 mmHg 55%
    18:00 +16°C° 0 mm 2 m/s 725 mmHg 61%
    19:00 +14°C° 0 mm 2 m/s 725 mmHg 68%
    20:00 +14°C° 0 mm 2 m/s 725 mmHg 70%
    21:00 +13°C° 0 mm 2 m/s 725 mmHg 72%
    22:00 +12°C° 0 mm 2 m/s 725 mmHg 74%
    23:00 +12°C° 0 mm 2 m/s 725 mmHg 75%

    25 Abril, Quarta-feira

    Tempo Temperatura Precipitação Vento Pressão Humidade
    00:00 +10°C° 0 mm 2 m/s 725 mmHg 76%
    01:00 +10°C° 0 mm 2 m/s 725 mmHg 77%
    02:00 +10°C° 0 mm 2 m/s 725 mmHg 79%
    03:00 +9°C° 0 mm 2 m/s 725 mmHg 81%
    04:00 +9°C° 0 mm 2 m/s 724 mmHg 82%
    05:00 +10°C° 0 mm 2 m/s 724 mmHg 79%
    06:00 +12°C° 0 mm 2 m/s 724 mmHg 75%
    07:00 +13°C° 0 mm 3 m/s 724 mmHg 71%
    08:00 +15°C° 0 mm 4 m/s 724 mmHg 65%
    09:00 +16°C° 0 mm 5 m/s 724 mmHg 59%
    10:00 +19°C° 0 mm 6 m/s 724 mmHg 52%
    11:00 +20°C° 0 mm 7 m/s 723 mmHg 51%
    12:00 +21°C° 0 mm 7 m/s 723 mmHg 49%
    13:00 +22°C° 0 mm 7 m/s 722 mmHg 47%
    14:00 +22°C° 0 mm 7 m/s 722 mmHg 48%
    15:00 +22°C° 0 mm 6 m/s 721 mmHg 49%
    16:00 +22°C° 0 mm 6 m/s 721 mmHg 50%
    17:00 +20°C° 0,1 mm 5 m/s 721 mmHg 57%
    18:00 +17°C° 0,1 mm 5 m/s 721 mmHg 64%
    19:00 +17°C° 0,1 mm 4 m/s 721 mmHg 71%
    20:00 +14°C° 0 mm 4 m/s 721 mmHg 76%
    21:00 +13°C° 0 mm 3 m/s 721 mmHg 80%
    22:00 +12°C° 0 mm 3 m/s 722 mmHg 85%
    23:00 +11°C° 0 mm 3 m/s 722 mmHg 87%

    26 Abril, Quinta-feira

    Tempo Temperatura Precipitação Vento Pressão Humidade
    00:00 +11°C° 0 mm 3 m/s 723 mmHg 89%
    01:00 +10°C° 0 mm 3 m/s 723 mmHg 91%
    02:00 +9°C° 0 mm 3 m/s 723 mmHg 92%
    03:00 +9°C° 0 mm 2 m/s 723 mmHg 93%
    04:00 +8°C° 0 mm 2 m/s 724 mmHg 95%
    05:00 +9°C° 0 mm 2 m/s 724 mmHg 89%
    06:00 +10°C° 0 mm 2 m/s 724 mmHg 84%
    07:00 +12°C° 0 mm 2 m/s 724 mmHg 78%
    08:00 +12°C° 0 mm 3 m/s 724 mmHg 72%
    09:00 +13°C° 0 mm 3 m/s 724 mmHg 65%
    10:00 +16°C° 0 mm 3 m/s 724 mmHg 59%
    11:00 +15°C° 0,1 mm 4 m/s 724 mmHg 56%
    12:00 +17°C° 0,1 mm 4 m/s 724 mmHg 54%
    13:00 +17°C° 0,1 mm 4 m/s 724 mmHg 52%
    14:00 +17°C° 0,1 mm 4 m/s 723 mmHg 53%
    15:00 +15°C° 0,1 mm 5 m/s 723 mmHg 53%
    16:00 +15°C° 0,1 mm 5 m/s 723 mmHg 54%
    17:00 +13°C° 0 mm 4 m/s 724 mmHg 58%
    18:00 +12°C° 0 mm 4 m/s 724 mmHg 63%
    19:00 +10°C° 0 mm 3 m/s 724 mmHg 67%
    20:00 +9°C° 0 mm 3 m/s 724 mmHg 69%
    21:00 +9°C° 0 mm 3 m/s 725 mmHg 71%
    22:00 +8°C° 0 mm 3 m/s 725 mmHg 72%
    23:00 +7°C° 0 mm 2 m/s 725 mmHg 73%

    27 Abril, Sexta-feira

    Tempo Temperatura Precipitação Vento Pressão Humidade
    00:00 +7°C° 0 mm 2 m/s 725 mmHg 75%
    01:00 +6°C° 0 mm 2 m/s 725 mmHg 76%
    02:00 +5°C° 0 mm 2 m/s 725 mmHg 78%
    03:00 +5°C° 0 mm 2 m/s 725 mmHg 80%
    04:00 +4°C° 0 mm 2 m/s 725 mmHg 82%
    05:00 +5°C° 0 mm 2 m/s 726 mmHg 78%
    06:00 +7°C° 0 mm 2 m/s 726 mmHg 74%
    07:00 +8°C° 0 mm 2 m/s 726 mmHg 70%
    08:00 +9°C° 0 mm 2 m/s 726 mmHg 64%
    09:00 +10°C° 0 mm 2 m/s 726 mmHg 58%
    10:00 +12°C° 0 mm 2 m/s 726 mmHg 53%
    11:00 +13°C° 0,2 mm 2 m/s 726 mmHg 51%
    12:00 +13°C° 0,2 mm 2 m/s 726 mmHg 50%
    13:00 +13°C° 0,2 mm 3 m/s 726 mmHg 48%
    14:00 +14°C° 0,2 mm 2 m/s 725 mmHg 49%
    15:00 +14°C° 0,2 mm 2 m/s 725 mmHg 50%
    16:00 +14°C° 0,2 mm 2 m/s 725 mmHg 52%
    17:00 +12°C° 0,1 mm 2 m/s 725 mmHg 58%
    18:00 +11°C° 0,1 mm 1 m/s 725 mmHg 64%
    19:00 +10°C° 0,1 mm 1 m/s 725 mmHg 70%
    20:00 +9°C° 0 mm 1 m/s 725 mmHg 72%
    21:00 +8°C° 0 mm 1 m/s 725 mmHg 74%
    22:00 +8°C° 0 mm 1 m/s 725 mmHg 76%
    23:00 +7°C° 0 mm 1 m/s 725 mmHg 77%
    Mostrar mais